When you browse on this site, cookies collect data to enhance your experience and personalize the content and advertising you see.
Visit our Privacy Policy to learn more. By continuing to use the site, you agree to this use of cookies and data.
  • In Austria
  • List of Countries
  • For 7 days
  • Water Temperature
  • Weather Map
  • News
  • Weather Widgets
  • user-avatar
    Login

    Hourly Weather Sibate

    Today, 23 September, Monday

    Time Temperature Precipitation Wind Pressure Humidity
    00:00 +11°C° 0.2 mm 1 mps 559 mmHg 82%
    01:00 +11°C° 0 mm 1 mps 559 mmHg 82%
    02:00 +10°C° 0.3 mm 1 mps 559 mmHg 82%
    03:00 +10°C° 0.3 mm 1 mps 559 mmHg 82%
    04:00 +10°C° 0.3 mm 1 mps 559 mmHg 82%
    05:00 +11°C° 0.2 mm 1 mps 559 mmHg 80%
    06:00 +12°C° 0.2 mm 1 mps 560 mmHg 79%
    07:00 +12°C° 0 mm 0 mps 561 mmHg 74%
    08:00 +14°C° 0.1 mm 1 mps 562 mmHg 72%
    09:00 +16°C° 0.1 mm 1 mps 563 mmHg 69%
    10:00 +18°C° 0.1 mm 1 mps 563 mmHg 66%
    11:00 +18°C° 0.5 mm 1 mps 562 mmHg 69%
    12:00 +18°C° 0.5 mm 1 mps 561 mmHg 73%
    13:00 +17°C° 0.5 mm 2 mps 560 mmHg 76%
    14:00 +18°C° 0.5 mm 1 mps 560 mmHg 76%
    15:00 +18°C° 0.5 mm 1 mps 560 mmHg 76%
    16:00 +18°C° 0.5 mm 1 mps 559 mmHg 76%
    17:00 +16°C° 0.6 mm 1 mps 559 mmHg 79%
    18:00 +14°C° 0.6 mm 1 mps 559 mmHg 82%
    19:00 +13°C° 0.6 mm 1 mps 559 mmHg 85%
    20:00 +13°C° 0.3 mm 1 mps 559 mmHg 84%
    21:00 +13°C° 0.3 mm 1 mps 559 mmHg 84%
    22:00 +13°C° 0.3 mm 1 mps 560 mmHg 83%
    23:00 +12°C° 0.1 mm 1 mps 560 mmHg 83%

    Tomorrow, 24 September, Tuesday

    Time Temperature Precipitation Wind Pressure Humidity
    00:00 +12°C° 0.1 mm 1 mps 559 mmHg 82%
    01:00 +11°C° 0.1 mm 0 mps 559 mmHg 82%
    02:00 +10°C° 0 mm 0 mps 559 mmHg 82%
    03:00 +10°C° 0 mm 0 mps 559 mmHg 83%
    04:00 +10°C° 0 mm 0 mps 558 mmHg 83%
    05:00 +11°C° 0 mm 0 mps 559 mmHg 82%
    06:00 +11°C° 0 mm 0 mps 560 mmHg 81%
    07:00 +12°C° 0 mm 0 mps 560 mmHg 80%
    08:00 +14°C° 0.1 mm 1 mps 561 mmHg 77%
    09:00 +15°C° 0.1 mm 1 mps 562 mmHg 75%
    10:00 +16°C° 0.1 mm 1 mps 563 mmHg 72%
    11:00 +16°C° 0.6 mm 1 mps 562 mmHg 73%
    12:00 +18°C° 0.6 mm 1 mps 561 mmHg 74%
    13:00 +18°C° 0.6 mm 1 mps 561 mmHg 74%
    14:00 +16°C° 1 mm 1 mps 560 mmHg 78%
    15:00 +15°C° 1 mm 1 mps 560 mmHg 83%
    16:00 +15°C° 1 mm 1 mps 559 mmHg 87%
    17:00 +14°C° 0.8 mm 1 mps 559 mmHg 87%
    18:00 +14°C° 0.8 mm 1 mps 559 mmHg 87%
    19:00 +13°C° 0.8 mm 1 mps 559 mmHg 87%
    20:00 +13°C° 0.4 mm 1 mps 560 mmHg 87%
    21:00 +13°C° 0.4 mm 1 mps 560 mmHg 86%
    22:00 +13°C° 0.4 mm 1 mps 560 mmHg 85%
    23:00 +13°C° 0.3 mm 1 mps 560 mmHg 85%

    Day after tomorrow, 25 September, Wednesday

    Time Temperature Precipitation Wind Pressure Humidity
    00:00 +12°C° 0.3 mm 1 mps 560 mmHg 86%
    01:00 +11°C° 0.3 mm 0 mps 559 mmHg 86%
    02:00 +11°C° 0.1 mm 0 mps 559 mmHg 86%
    03:00 +11°C° 0.1 mm 0 mps 559 mmHg 86%
    04:00 +11°C° 0.1 mm 0 mps 559 mmHg 86%
    05:00 +11°C° 0.2 mm 0 mps 560 mmHg 86%
    06:00 +11°C° 0.2 mm 0 mps 560 mmHg 86%
    07:00 +12°C° 0.2 mm 0 mps 561 mmHg 86%
    08:00 +12°C° 0.3 mm 0 mps 561 mmHg 84%
    09:00 +13°C° 0.3 mm 0 mps 562 mmHg 83%
    10:00 +15°C° 0.3 mm 1 mps 562 mmHg 82%
    11:00 +15°C° 0.8 mm 1 mps 562 mmHg 80%
    12:00 +16°C° 0.8 mm 1 mps 561 mmHg 79%
    13:00 +18°C° 0.8 mm 1 mps 560 mmHg 78%
    14:00 +18°C° 0.9 mm 1 mps 560 mmHg 78%
    15:00 +18°C° 0.9 mm 1 mps 560 mmHg 77%
    16:00 +18°C° 0.9 mm 1 mps 559 mmHg 77%
    17:00 +15°C° 0.8 mm 1 mps 559 mmHg 80%
    18:00 +14°C° 0.8 mm 1 mps 559 mmHg 83%
    19:00 +13°C° 0.8 mm 1 mps 559 mmHg 86%
    20:00 +13°C° 0.2 mm 1 mps 559 mmHg 86%
    21:00 +12°C° 0.2 mm 1 mps 559 mmHg 86%
    22:00 +12°C° 0.2 mm 1 mps 559 mmHg 86%
    23:00 +11°C° 0.1 mm 1 mps 559 mmHg 85%

    26 September, Thursday

    Time Temperature Precipitation Wind Pressure Humidity
    00:00 +11°C° 0.1 mm 1 mps 559 mmHg 84%
    01:00 +11°C° 0.1 mm 1 mps 559 mmHg 84%
    02:00 +11°C° 0.1 mm 1 mps 559 mmHg 84%
    03:00 +11°C° 0.1 mm 1 mps 558 mmHg 85%
    04:00 +11°C° 0.1 mm 1 mps 558 mmHg 86%
    05:00 +11°C° 0.2 mm 1 mps 559 mmHg 86%
    06:00 +12°C° 0.2 mm 1 mps 559 mmHg 86%
    07:00 +12°C° 0.2 mm 1 mps 560 mmHg 86%
    08:00 +13°C° 0.2 mm 1 mps 560 mmHg 85%
    09:00 +13°C° 0.2 mm 1 mps 561 mmHg 83%
    10:00 +14°C° 0.2 mm 1 mps 561 mmHg 82%
    11:00 +14°C° 0.5 mm 1 mps 560 mmHg 82%
    12:00 +15°C° 0.5 mm 1 mps 560 mmHg 82%
    13:00 +15°C° 0.5 mm 1 mps 560 mmHg 82%
    14:00 +15°C° 0.6 mm 1 mps 559 mmHg 83%
    15:00 +15°C° 0.6 mm 1 mps 559 mmHg 83%
    16:00 +14°C° 0.6 mm 1 mps 558 mmHg 83%
    17:00 +14°C° 0.2 mm 1 mps 558 mmHg 84%
    18:00 +13°C° 0.2 mm 1 mps 558 mmHg 85%
    19:00 +12°C° 0.2 mm 1 mps 558 mmHg 85%
    20:00 +12°C° 0.1 mm 1 mps 559 mmHg 85%
    21:00 +12°C° 0.1 mm 1 mps 559 mmHg 84%
    22:00 +12°C° 0.1 mm 1 mps 559 mmHg 83%
    23:00 +12°C° 0 mm 1 mps 559 mmHg 84%

    27 September, Friday

    Time Temperature Precipitation Wind Pressure Humidity
    00:00 +11°C° 0 mm 1 mps 559 mmHg 85%
    01:00 +10°C° 0 mm 0 mps 558 mmHg 85%
    02:00 +11°C° 0 mm 1 mps 558 mmHg 85%
    03:00 +11°C° 0 mm 1 mps 558 mmHg 85%
    04:00 +11°C° 0 mm 1 mps 558 mmHg 85%
    05:00 +11°C° 0 mm 1 mps 559 mmHg 84%
    06:00 +11°C° 0 mm 0 mps 560 mmHg 83%
    07:00 +12°C° 0 mm 0 mps 560 mmHg 81%
    08:00 +14°C° 0.2 mm 1 mps 561 mmHg 79%
    09:00 +16°C° 0.2 mm 1 mps 562 mmHg 76%
    10:00 +18°C° 0.2 mm 1 mps 562 mmHg 73%
    11:00 +18°C° 0.9 mm 1 mps 562 mmHg 74%
    12:00 +18°C° 0.9 mm 1 mps 561 mmHg 74%
    13:00 +18°C° 0.9 mm 1 mps 561 mmHg 74%
    14:00 +18°C° 0.8 mm 1 mps 560 mmHg 75%
    15:00 +18°C° 0.8 mm 1 mps 560 mmHg 76%
    16:00 +16°C° 0.8 mm 1 mps 559 mmHg 78%
    17:00 +15°C° 0.5 mm 1 mps 559 mmHg 81%
    18:00 +14°C° 0.5 mm 1 mps 558 mmHg 84%
    19:00 +12°C° 0.5 mm 1 mps 558 mmHg 88%
    20:00 +12°C° 0 mm 1 mps 558 mmHg 85%
    21:00 +12°C° 0 mm 1 mps 558 mmHg 83%
    22:00 +11°C° 0 mm 1 mps 558 mmHg 81%
    23:00 +11°C° 0.1 mm 1 mps 558 mmHg 82%

    28 September, Saturday

    Time Temperature Precipitation Wind Pressure Humidity
    00:00 +11°C° 0.1 mm 1 mps 558 mmHg 82%
    01:00 +11°C° 0.1 mm 1 mps 558 mmHg 82%
    02:00 +10°C° 0 mm 1 mps 558 mmHg 83%
    03:00 +10°C° 0 mm 1 mps 557 mmHg 83%
    04:00 +10°C° 0 mm 1 mps 557 mmHg 84%
    05:00 +11°C° 0 mm 1 mps 558 mmHg 81%
    06:00 +12°C° 0 mm 1 mps 559 mmHg 79%
    07:00 +12°C° 0 mm 0 mps 560 mmHg 76%
    08:00 +15°C° 0 mm 1 mps 561 mmHg 72%
    09:00 +16°C° 0 mm 1 mps 562 mmHg 67%
    10:00 +18°C° 0 mm 2 mps 563 mmHg 62%
    11:00 +18°C° 0.5 mm 2 mps 562 mmHg 64%
    12:00 +18°C° 0.5 mm 2 mps 561 mmHg 66%
    13:00 +18°C° 0.5 mm 2 mps 560 mmHg 68%
    14:00 +18°C° 1 mm 2 mps 560 mmHg 72%
    15:00 +18°C° 1 mm 1 mps 559 mmHg 77%
    16:00 +16°C° 1 mm 1 mps 558 mmHg 81%
    17:00 +15°C° 1 mm 1 mps 558 mmHg 83%
    18:00 +14°C° 1 mm 1 mps 558 mmHg 86%
    19:00 +13°C° 1 mm 1 mps 558 mmHg 88%
    20:00 +13°C° 0.2 mm 1 mps 558 mmHg 88%
    21:00 +12°C° 0.2 mm 1 mps 558 mmHg 87%
    22:00 +12°C° 0.2 mm 1 mps 558 mmHg 86%
    23:00 +11°C° 0.2 mm 1 mps 558 mmHg 87%
    Show more